Regional Weather Roundup
Issued by NWS

Home | Current Version | Previous Version | Graphics & Text | Print | Product List | Glossary On
Versions: 1 2 3 4 5 6 7 8 9 10 11 12 13 14 15 16 17 18 19 20 21 22 23 24 25 26 27 28 29 30 31 32 33 34 35 36 37 38 39 40 41 42 43 44 45 46 47 48 49 50
476
ASUS43 KMPX 250710
RWRMN
WEATHER ROUNDUP FOR MINNESOTA
NATIONAL WEATHER SERVICE TWIN CITIES/CHANHASSEN MN
200 AM CDT SAT MAR 25 2017


NOTE: "FAIR" INDICATES FEW OR NO CLOUDS BELOW 12,000 FEET WITH NO
SIGNIFICANT WEATHER AND/OR OBSTRUCTIONS TO VISIBILITY. N/A MEANS
CURRENT SKY AND/OR WEATHER CONDITIONS ARE NOT AVAILABLE.

MNZ060>063-068>070-250800-
   Twin Cities Metro

CITY           SKY/WX    TMP DP  RH WIND       PRES   REMARKS
TWIN CITIES    CLOUDY    38  31  76 NE9       30.18F
ST PAUL        CLOUDY    38  33  82 NE9       30.19F
CRYSTAL        CLOUDY    38  29  70 NE9       30.17F
BLAINE         CLOUDY    39  34  81 NE7       30.17F
LAKEVILLE      CLOUDY    36  34  93 NE8       30.17R
EDEN PRAIRIE   CLOUDY    39  32  76 NE9       30.16F
SOUTH ST PAUL  CLOUDY    38  32  77 NE6       30.18S
LAKE ELMO      CLOUDY    37  32  81 NE7       30.18F
$$
MNZ001>005-007-008-013>017-022>024-027-028-250800-
   Northwest Minnesota

CITY           SKY/WX    TMP DP  RH WIND       PRES   REMARKS
BEMIDJI        CLOUDY    34  29  83 SE6       30.22R WCI  29
HALLOCK        CLEAR     30  28  93 CALM      30.22S
ROSEAU         CLOUDY    28  23  80 E5        30.22S WCI  23
WARROAD        CLEAR     28  25  86 E5        30.23S WCI  23
THIEF RVR FALL CLEAR    N/A N/A N/A E7        30.22
CROOKSTON      CLEAR     32  28  86 SE7       30.22S WCI  26
FOSSTON        CLEAR     25  25 100 CALM      30.22S
DETROIT LAKES  CLOUDY    32  30  93 SE3       30.22S
MOORHEAD       CLEAR     28  28 100 E3        30.22F
PARK RAPIDS    CLOUDY    37  26  64 SE9       30.21R
MAHNOMEN       FAIR      31  28  89 SE5       30.21S WCI  26
$$
MNZ006-009>011-018-025>026-250800-
   North Central Minnesota

CITY           SKY/WX    TMP DP  RH WIND       PRES   REMARKS
BAUDETTE       CLEAR     28  24  85 E6        30.23R WCI  22
FLAG ISLAND    CLEAR     30  25  80 E5        30.23S WCI  25
INTL FALLS     CLOUDY    33  27  78 E5        30.24S WCI  29
WASKISH        MOCLDY    30  27  86 CALM      30.23R
BIG FORK       CLOUDY    34  28  80 CALM      30.23S
LONGVILLE      CLOUDY    36  30  80 CALM      30.23R
GRAND RAPIDS   CLOUDY    34  31  88 SE6       30.26R WCI  29
CRANE LAKE     CLOUDY    32  28  86 CALM      30.27F
ORR            CLOUDY    34  27  75 CALM      30.22S
COOK           CLOUDY    34  30  86 SE3       30.25S
WALKER         CLOUDY    33  30  88 CALM      30.22S
$$
MNZ012-019>021-037-250800-
   Northeast Minnesota

CITY           SKY/WX    TMP DP  RH WIND       PRES   REMARKS
DULUTH         CLOUDY    33  31  92 E10       30.25R WCI  25
ELY            CLOUDY    32  28  86 SE5       30.26R WCI  27
HIBBING        CLOUDY    32  31  96 SE6       30.25R WCI  26
EVELETH        CLOUDY    32  30  90 CALM      30.26R
DULUTH HARBOR  CLOUDY    36  34  93 NE15      30.28R
TWO HARBORS    CLOUDY    36  30  80 E8        30.26R
SILVER BAY     CLOUDY    34  30  86 NE6       30.27R WCI  29
GRAND MARAIS     N/A     35  25  66 NE8       30.30R WCI  29
G MARAIS ARPRT CLOUDY    28  19  69 NE6       30.25S WCI  22
$$
MNZ029>031-032-039>041-046>048-054>057-064-250800-
   West Central Minnesota

CITY           SKY/WX    TMP DP  RH WIND       PRES   REMARKS
FERGUS FALLS   CLEAR     30  28  93 E3        30.26R
WHEATON          N/A     28  28 100 CALM      30.23S FOG
MORRIS         CLOUDY    36  30  80 E8        30.18F
ALEXANDRIA     CLOUDY    34  30  85 NE6       30.19F WCI  29
ELBOW LAKE     MOCLDY    33  30  88 SE7       30.21S WCI  27
WADENA         CLOUDY    36  28  75 E7        30.21R
GLENWOOD       CLOUDY    36  30  80 E9        30.18F
APPLETON       CLOUDY    36  32  87 CALM      30.17F
BENSON         CLOUDY    37  30  75 E8        30.18F
ORTONVILLE     PTCLDY    28  27  93 NE6       30.18F WCI  22
MADISON        CLOUDY    36  36 100 CALM      30.17F
WILLMAR        CLOUDY    37  34  87 E12       30.18F
$$
MNZ033>034-036-042>043-049>051-058-059-250800-
   Central Minnesota

CITY           SKY/WX    TMP DP  RH WIND       PRES   REMARKS
ST CLOUD       CLOUDY    36  31  82 E6        30.18F
SAUK CENTRE    CLOUDY    34  30  85 NE7       30.18F WCI  28
PAYNESVILLE      N/A     36  32  84 E8        30.18F
AITKIN         CLOUDY    36  30  80 E3        30.23R
PINE RIVER     CLOUDY    36  30  80 E7        30.25S
BRAINERD       CLOUDY    36  31  82 E5        30.23R
STAPLES        CLOUDY    36  28  75 E3        30.22S
LONG PRAIRIE   CLOUDY    32  30  93 N7        30.20F WCI  26
LITTLE FALLS   MOCLDY    32  30  93 CALM      30.21F
LITCHFIELD     CLOUDY    37  34  87 E8        30.18F
BUFFALO        CLOUDY    37  32  82 NE6       30.19F
MAPLE LAKE     CLOUDY    37  33  85 E7        30.19F
HUTCHINSON     CLOUDY    37  34  89 NE8       30.18S
$$
MNZ037-044-045-052-053-250800-
   East Central Minnesota

CITY           SKY/WX    TMP DP  RH WIND       PRES   REMARKS
PRINCETON      CLOUDY    37  30  75 NE7       30.20F
MORA           CLOUDY    32  30  93 CALM      30.23F
CAMBRIDGE      CLOUDY    37  28  70 NE5       30.18F
RUSH CITY      CLOUDY    35  30  82 NE5       30.21F WCI  31
MOOSE LAKE     CLOUDY    34  32  93 NE5       30.24R WCI  30
HINCKLEY       CLOUDY    34  32  93 NE3       30.23S
CLOQUET        CLOUDY    34  30  86 NE6       30.25R WCI  29
MCGREGOR       CLOUDY    34  32  93 E5        30.25R WCI  30
$$
MNZ071>073-080-081-089-090-097-098-250800-
   Southwest Minnesota

CITY           SKY/WX    TMP DP  RH WIND       PRES   REMARKS
MONTEVIDEO     CLOUDY    36  34  93 SE6       30.19F
GRANITE FALLS  CLOUDY    38  33  82 NE8       30.19R
CANBY          CLOUDY    35  33  95 CALM      30.18F FOG
MARSHALL       CLOUDY    36  32  85 E9        30.17S
REDWOOD FALLS  CLOUDY    37  32  82 NE6       30.16F
OLIVIA         CLOUDY    36  32  87 E7        30.16F
PIPESTONE      CLOUDY    34  30  86 E12G20    30.11S FOG     WCI  25
WINDOM         CLOUDY    37  36  93 NE14      30.11S
WORTHINGTON    CLOUDY    35  34  96 NE18      30.09F FOG     WCI  24
JACKSON        CLOUDY    36  34  93 NE14      30.09F FOG
TRACY          CLOUDY    36  34  93 NE9       30.15S
SLAYTON        CLOUDY    33  32  98 NE15      30.12F FOG     WCI  23
$$
MNZ065>067-074>077-082>085-091>093-250800-
   South Central Minnesota

CITY           SKY/WX    TMP DP  RH WIND       PRES   REMARKS
MANKATO        CLOUDY    38  35  89 NE12      30.13R
NEW ULM        CLOUDY    37  34  87 NE9       30.14S
ST JAMES       CLOUDY    37  36  93 CALM      30.13F
FAIRMONT       CLOUDY    38  36  92 NE15      30.09F
GLENCOE        CLOUDY    38  36  93 NE5       30.17R
FARIBAULT      CLOUDY    37  36  93 N8        30.14R
OWATONNA       CLOUDY    37  34  87 NE9G16    30.12R
WASECA         CLOUDY    36  32  87 NE12      30.12S
ALBERT LEA     CLOUDY    37  36  93 NE14      30.07F FOG
$$
MNZ078>079-086>088-094>096-250800-
   Southeast Minnesota

CITY           SKY/WX    TMP DP  RH WIND       PRES   REMARKS
ROCHESTER      CLOUDY    37  36  96 NE13      30.10F
RED WING       CLOUDY    39  32  75 E7        30.15F
STANTON        CLOUDY    38  34  85 NE9       30.14R
DODGE CENTER   CLOUDY    36  36 100 NE8       30.11R
WINONA         CLOUDY    37  36  93 E8        30.14F
AUSTIN         CLOUDY    37  36  93 NE12G20   30.08R
PRESTON        CLOUDY    37  35  94 E10G16    30.09F FOG
$$
ABBREVIATIONS USED IN REMARKS
   TC - TEMPERATURES IN CELSIUS
  WCI - WIND CHILL INDEX
   HX - HEAT INDEX
  VSB - VISIBILITY
$$




USA.gov is the U.S. government's official web portal to all federal, state and local government web resources and services.